TimeEST,TemperatureF,Dew PointF,Humidity,Sea Level PressureIn,VisibilityMPH,Wind Direction,Wind SpeedMPH,Gust SpeedMPH,PrecipitationIn,Events,Conditions,WindDirDegrees,DateUTC
12:00 AM,60.8,53.6,77,30.12,-9999.0,Calm,Calm,-,N/A,,Clear,0,2013-03-06 05:00:00
1:00 AM,59,56,85,30.09,9,Calm,Calm,,,,,,2013-03-06 06:00:00
2:00 AM,62.6,55.4,77,30.04,-9999.0,Calm,Calm,-,N/A,,Clear,0,2013-03-06 07:00:00
3:00 AM,62.6,55.4,77,30.04,6.2,Calm,Calm,-,N/A,,Scattered Clouds,0,2013-03-06 08:00:00
4:00 AM,59,55,82,30.04,9,Calm,Calm,,,,Partly Cloudy,,2013-03-06 09:00:00
4:00 AM,59.0,55.4,88,30.04,6.2,Calm,Calm,-,N/A,,Scattered Clouds,0,2013-03-06 09:00:00
6:00 AM,62.6,55.4,77,30.06,6.2,Calm,Calm,-,N/A,,Partly Cloudy,0,2013-03-06 11:00:00
7:00 AM,60,58,91,30.07,9,,2.3,,,,Scattered Clouds,,2013-03-06 12:00:00
7:00 AM,60.8,59.0,94,30.07,6.2,Variable,2.3,-,N/A,,Partly Cloudy,0,2013-03-06 12:00:00
8:00 AM,68.0,59.0,73,30.09,-9999.0,WSW,4.6,-,N/A,,Clear,240,2013-03-06 13:00:00
9:00 AM,69.8,57.2,64,30.09,6.2,SW,12.7,-,N/A,,Partly Cloudy,230,2013-03-06 14:00:00
10:00 AM,73,58,51,30.11,9,WSW,11.5,,,,Scattered Clouds,250,2013-03-06 15:00:00
10:00 AM,73.4,59.0,61,30.10,6.2,WSW,11.5,-,N/A,,Partly Cloudy,250,2013-03-06 15:00:00
11:00 AM,71.6,55.4,57,30.10,6.2,WNW,11.5,-,N/A,,Partly Cloudy,290,2013-03-06 16:00:00
12:00 PM,73.4,57.2,57,30.09,6.2,WSW,11.5,-,N/A,,Partly Cloudy,250,2013-03-06 17:00:00
1:00 PM,78,59,43,30.06,9,West,12.7,,,,Scattered Clouds,280,2013-03-06 18:00:00
1:00 PM,77.0,59.0,54,30.05,6.2,West,12.7,-,N/A,,Partly Cloudy,280,2013-03-06 18:00:00
2:00 PM,75.2,57.2,53,30.01,-9999.0,West,12.7,-,N/A,,Clear,280,2013-03-06 19:00:00
3:00 PM,77.0,57.2,50,30.01,6.2,WNW,13.8,-,N/A,,Scattered Clouds,290,2013-03-06 20:00:00
4:00 PM,80,57,35,30.01,9,West,20.7,,,,Scattered Clouds,280,2013-03-06 21:00:00
4:00 PM,80.6,57.2,45,30.00,6.2,West,19.6,-,N/A,,Scattered Clouds,280,2013-03-06 21:00:00
5:00 PM,75.2,57.2,53,30.00,6.2,West,16.1,-,N/A,,Scattered Clouds,270,2013-03-06 22:00:00
6:00 PM,73.4,59.0,61,30.00,6.2,West,16.1,-,N/A,,Scattered Clouds,260,2013-03-06 23:00:00
7:00 PM,74,60,53,30.01,9,West,16.1,,,,Scattered Clouds,270,2013-03-07 00:00:00
7:00 PM,73.4,60.8,65,30.01,6.2,West,16.1,-,N/A,,Scattered Clouds,270,2013-03-07 00:00:00
8:00 PM,71.6,62.6,73,30.02,6.2,West,13.8,-,N/A,,Scattered Clouds,270,2013-03-07 01:00:00
9:00 PM,71.6,64.4,78,30.03,6.2,West,11.5,-,N/A,,Scattered Clouds,260,2013-03-07 02:00:00
11:00 PM,71.6,64.4,78,30.03,-9999.0,WSW,17.3,-,N/A,,Mostly Cloudy,250,2013-03-07 04:00:00